Regional Weather Roundup
Issued by NWS

Home | Current Version | Previous Version | Graphics & Text | Print | Product List | Glossary On
Versions: 1 2 3 4 5 6 7 8 9 10 11 12 13 14 15 16 17 18 19 20 21 22 23 24 25 26 27 28 29 30 31 32 33 34 35 36 37 38 39 40 41 42 43 44 45 46 47 48 49 50
000
ASUS43 KOAX 170602
RWRNE

WEATHER ROUNDUP FOR NEBRASKA
NATIONAL WEATHER SERVICE OMAHA NE
100 AM CDT WED SEP 17 2014

NOTES: SATELLITE DATA IS BEING USED TO AUGMENT CLOUD COVER ABOVE
       12000 FEET.
       "FAIR" INDICATES FEW OR NO CLOUDS BELOW 12,000 FEET WITH NO
       SIGNIFICANT WEATHER AND/OR OBSTRUCTIONS TO VISIBILITY.

  * THESE STATIONS DO NOT REPORT WEATHER SUCH AS RAIN...SNOW OR FOG.

NEZ001>004-019>022-054>056-170700-
NEBRASKA PANHANDLE

CITY           SKY/WX    TMP DP  RH WIND       PRES   REMARKS
SCOTTSBLUFF    PTCLDY    59  47  64 NE6       30.01F
6HR MIN TEMP:  57; 6HR MAX TEMP:  84;

ALLIANCE       CLEAR     54  46  74 CALM      30.00S
6HR MIN TEMP:  52; 6HR MAX TEMP:  79;

CHADRON        PTCLDY    56  50  80 CALM      29.97S
6HR MIN TEMP:  54; 6HR MAX TEMP:  79;

KIMBALL        CLEAR     57  44  61 SW7       30.06S
SIDNEY         CLEAR     53  46  77 SW7       30.05S
6HR MIN TEMP:  53; 6HR MAX TEMP:  83;

$$

NEZ057>060-069>072-079>082-170700-
SOUTHWEST NEBRASKA

CITY           SKY/WX    TMP DP  RH WIND       PRES   REMARKS
NORTH PLATTE   CLEAR     52  51  97 E5        29.96F FOG
6HR MIN TEMP:  52; 6HR MAX TEMP:  72;

IMPERIAL       CLEAR     56  53  90 CALM      29.99S
6HR MIN TEMP:  56; 6HR MAX TEMP:  83;

LEXINGTON      CLEAR     53  52  95 CALM      29.97S
MCCOOK         CLEAR     57  55  93 N3        29.96F
6HR MIN TEMP:  56; 6HR MAX TEMP:  76;

OGALLALA       CLEAR     60  56  89 CALM      29.99F
$$

NEZ005>010-023>029-035>040-094-170700-
NORTH CENTRAL NEBRASKA

CITY           SKY/WX    TMP DP  RH WIND       PRES   REMARKS
VALENTINE      CLEAR     49  48  97 SW5       29.95S
6HR MIN TEMP:  49; 6HR MAX TEMP:  78;

BROKEN BOW     CLEAR     49  48  97 CALM      29.96F FOG
6HR MIN TEMP:  48; 6HR MAX TEMP:  68;

O`NEILL        CLEAR     55  54  97 S7        29.95S
ORD            CLEAR     49  48  97 NW3       29.95F
6HR MIN TEMP:  49; 6HR MAX TEMP:  66;

THEDFORD       CLEAR     57  56  94 CALM      29.98S
$$

NEZ041-046>049-061>064-073>077-083>087-170700-
SOUTH CENTRAL NEBRASKA

CITY           SKY/WX    TMP DP  RH WIND       PRES   REMARKS
GRAND ISLAND   CLEAR     56  50  80 S5        29.95F
6HR MIN TEMP:  56; 6HR MAX TEMP:  65;

HASTINGS       CLEAR     60  49  66 S9        29.96F
6HR MIN TEMP:  59; 6HR MAX TEMP:  65;

HEBRON         PTCLDY    57  52  82 CALM      29.97F
HOLDREGE       CLEAR     55  51  87 SE9       29.94F
KEARNEY *      CLEAR     54  50  87 SE8       29.94F
YORK           CLEAR     57  52  82 S7        29.96F
$$

NEZ011>018-030>034-042>045-170700-
NORTHEAST NEBRASKA

CITY           SKY/WX    TMP DP  RH WIND       PRES   REMARKS
NORFOLK        CLEAR     54  50  86 CALM      29.96F
6HR MIN TEMP:  54; 6HR MAX TEMP:  66;

ALBION         CLEAR     55  49  82 SE3       29.95F
BLAIR          CLOUDY    62  52  69 SE7       29.97F
COLUMBUS *     CLEAR     54  48  82 CALM      29.97F
FREMONT        CLOUDY    63  52  67 SE7       29.98S
TEKAMAH        CLOUDY    60  54  80 CALM      29.98F
6HR MIN TEMP:  59; 6HR MAX TEMP:  66;

WAYNE          CLEAR     52  49  92 CALM      29.97S
$$

NEZ050>053-065>068-078-088>093-170700-
SOUTHEAST NEBRASKA

CITY           SKY/WX    TMP DP  RH WIND       PRES   REMARKS
LINCOLN        CLOUDY    62  53  72 SE7       29.98F
6HR MIN TEMP:  62; 6HR MAX TEMP:  69;

OMAHA EPPLEY   CLOUDY    63  51  65 S9        29.98F
6HR MIN TEMP:  63; 6HR MAX TEMP:  66;

BEATRICE       CLOUDY    63  54  73 CALM      29.98F
FALLS CITY     CLOUDY    62  55  77 SE6       29.98F
6HR MIN TEMP:  62; 6HR MAX TEMP:  66;

NEBRASKA CITY  CLOUDY    61  50  68 SE5       29.99S
PLATTSMOUTH    CLOUDY    61  51  70 SE8       29.98F
$$

NEZ044-045-051>053-067-170700-
OMAHA AREA

CITY           SKY/WX    TMP DP  RH WIND       PRES   REMARKS
OMAHA EPPLEY   CLOUDY    63  51  65 S9        29.98F
6HR MIN TEMP:  63; 6HR MAX TEMP:  66;

BLAIR          CLOUDY    62  52  69 SE7       29.97F
FREMONT        CLOUDY    63  52  67 SE7       29.98S
MILLARD        CLOUDY    62  54  74 SE5       29.98F
OFFUTT AFB     CLOUDY    61  58  92 SE7       29.98F
PLATTSMOUTH    CLOUDY    61  51  70 SE8       29.98F
WAHOO          CLOUDY    60  53  78 SE5       29.97F
$$



USA.gov is the U.S. government's official web portal to all federal, state and local government web resources and services.